Regional Weather Roundup
Issued by NWS

Home | Current Version | Previous Version | Text Only | Print | Product List | Glossary On
Versions: 1 2 3 4 5 6 7 8 9 10 11 12 13 14 15 16 17 18 19 20 21 22 23 24 25 26 27 28
000
ASUS45 KREV 250610
RWRNV
NEVADA REGIONAL WEATHER ROUNDUP
NATIONAL WEATHER SERVICE RENO NV
1100 PM PDT FRI OCT 24 2014

NOTE: "FAIR" INDICATES FEW OR NO CLOUDS BELOW 12,000 FEET WITH NO
SIGNIFICANT WEATHER AND/OR OBSTRUCTIONS TO VISIBILITY.

NVZ001-003-004-250700-
WESTERN NEVADA

CITY           SKY/WX    TMP DP  RH WIND       PRES   REMARKS
RENO           CLEAR     63  20  19 S13       29.99S
6HR MIN TEMP:  62; 6HR MAX TEMP:  77;

CARSON CITY    FAIR      64  18  16 CALM      30.02S
MINDEN         FAIR      59  19  21 S15       30.03
SLIDE MTN        N/A     41  19  42 S23         N/A
FALLON         CLEAR     54  30  40 E5        29.96R
6HR MIN TEMP:  48; 6HR MAX TEMP:  77;

LOVELOCK       CLEAR     46  21  37 CALM      29.95R
6HR MIN TEMP:  44; 6HR MAX TEMP:  77;

HAWTHORNE      CLEAR     66  19  16 SE13      30.00S
$$

NVZ002-CAZ072-073-250700-
NORTHERN AND CENTRAL SIERRA

CITY           SKY/WX    TMP DP  RH WIND       PRES   REMARKS
S. LAKE TAHOE  CLEAR     59  17  19 S15G25    30.07F
6HR MIN TEMP:  57; 6HR MAX TEMP:  67;

TRUCKEE        CLEAR     55  21  26 SW20G26   30.07S
SQUAW VLY 8000 NOT AVBL
BLUE CANYON    CLEAR     57  29  34 SE16G24   30.06S
MAMMOTH LAKES  FAIR      45  12  26 CALM      30.19R
BRIDGEPORT     FAIR      55   9  16 MISG      30.12S
$$

NVZ030-031-036-250700-
NORTHERN NEVADA

CITY           SKY/WX    TMP DP  RH WIND       PRES   REMARKS
ELKO           CLEAR     59  25  27 W3        30.05R
6HR MIN TEMP:  59; 6HR MAX TEMP:  77;

WINNEMUCCA     CLEAR     45  19  35 E8        29.96S
6HR MIN TEMP:  45; 6HR MAX TEMP:  77;

WENDOVER       CLEAR     48  34  57 SE3       30.08S
$$

NVZ035-037-250700-
CENTRAL NEVADA

CITY           SKY/WX    TMP DP  RH WIND       PRES   REMARKS
ELY            CLEAR     52  28  39 S15       30.22R
6HR MIN TEMP:  50; 6HR MAX TEMP:  70;

EUREKA           N/A     58  25  28 SE14      30.14S
6HR MIN TEMP:  53; 6HR MAX TEMP:  73;

$$

NVZ013-014-250700-
SOUTH CENTRAL NEVADA

CITY           SKY/WX    TMP DP  RH WIND       PRES   REMARKS
TONOPAH        CLEAR     58  28  32 SE8       30.15S
6HR MIN TEMP:  54; 6HR MAX TEMP:  74;

$$

NVZ017-020-022-250700-
SOUTHERN NEVADA

CITY           SKY/WX    TMP DP  RH WIND       PRES   REMARKS
LAS VEGAS      CLEAR     73  38  27 SW9       29.99S
6HR MIN TEMP:  73; 6HR MAX TEMP:  87;

N. LAS VEGAS   CLEAR     69  39  33 NW7       30.02S
6HR MIN TEMP:  68; 6HR MAX TEMP:  85;

NELLIS AFB     CLEAR     73  35  24 N6        30.01S
6HR MIN TEMP:  71; 6HR MAX TEMP:  87;

HENDERSON      CLEAR     69  37  30 S7        30.05S
6HR MIN TEMP:  68; 6HR MAX TEMP:  87;

MERCURY        CLEAR     64  35  34 E3        30.06S
6HR MIN TEMP:  63; 6HR MAX TEMP:  85;

$$



USA.gov is the U.S. government's official web portal to all federal, state and local government web resources and services.